Temp
11 11 11 11 11 11 11 11 11 11 11 11 11 11 11 11 11 11 11 11 11 11 11 11 11 12 12 12 12 12 12 12 12 12 12 12 12 12 12 12 12 12 12 12 12 12 12 12 12 12 12 12 12 12 12 12 12 12 12 12 12 12 12 12 12 12 12 12 11
11 11 11 11 11 11 11 11 11 11 11 11 11 11 11 11 11 11 11 11 11 11 11 11 11 12 12 12 12 12 12 12 12 12 12 12 12 12 12 12 12 12 12 12 13 13 13 13 12 12 12 12 12 12 12 12 12 12 12 12 12 12 12 12 12 12 11 11 11
11 11 11 11 11 11 11 11 11 11 11 11 11 11 11 11 11 11 11 11 11 11 11 11 11 11 11 12 12 12 12 12 12 12 12 12 12 12 12 12 13 13 13 13 13 13 13 13 13 12 12 12 12 12 12 12 12 12 12 12 12 12 12 12 11 11 11 11 11
11 11 11 11 11 11 11 11 11 11 11 11 11 11 11 11 11 11 11 11 11 11 11 11 11 11 11 12 12 12 12 12 12 12 12 12 13 13 13 13 13 13 13 13 13 13 13 13 13 12 12 12 12 12 12 12 11 11 11 11 11 11 11 11 11 11 11 10 10
12 12 12 12 12 12 12 12 12 12 12 12 12 11 11 11 11 11 11 11 11 11 11 11 12 12 12 12 12 12 12 12 13 13 13 13 13 13 13 13 13 13 13 13 13 13 12 12 12 12 12 12 12 12 11 11 11 11 11 11 11 11 11 11 11 10 10 10 10
11 11 11 11 11 11 11 11 11 11 11 11 11 11 11 11 11 11 11 12 12 12 12 12 12 12 12 13 13 13 13 13 13 13 13 13 13 13 13 13 13 13 12 12 12 12 12 12 12 12 12 11 11 11 11 10 10 10 10 10 10 10 10 10 10 10 10 10 10
11 11 11 11 11 11 11 11 11 11 11 11 11 11 11 11 11 12 12 12 12 12 12 12 12 12 13 13 13 13 13 13 13 13 13 13 13 13 13 13 13 12 12 12 12 12 12 11 11 11 11 11 11 10 10 10 9 9 9 9 10 10 10 10 10 10 10 10 10
11 11 11 11 11 11 11 11 11 11 11 11 11 11 11 11 12 12 12 12 12 12 12 12 12 12 12 12 12 12 12 12 12 12 12 13 13 13 13 13 12 12 12 12 12 12 11 11 11 11 11 11 11 10 10 9 9 9 9 9 9 9 9 9 9 9 9 9 9
11 11 11 11 11 11 11 11 11 11 11 11 11 11 11 11 11 11 11 11 11 11 11 12 12 12 12 12 12 12 12 12 12 12 12 12 12 12 12 12 12 12 12 12 12 11 11 11 11 11 11 11 11 10 10 10 9 9 9 9 9 9 9 9 9 9 9 9 9
11 11 11 11 11 11 11 11 11 11 11 11 11 11 11 11 11 11 11 11 11 11 11 11 11 11 11 11 12 12 12 12 12 12 12 12 12 12 12 12 12 12 12 11 11 11 11 11 11 11 11 11 10 10 10 10 10 10 9 9 9 9 9 9 9 9 9 9 9
11 11 11 11 11 11 11 11 11 11 11 11 11 11 11 11 11 11 11 11 11 11 11 11 11 11 11 11 11 11 11 11 11 11 11 11 11 11 11 11 11 11 11 11 11 11 11 10 10 11 11 10 10 10 10 10 10 10 10 9 9 8 8 8 8 8 8 8 9
11 11 11 11 10 10 11 11 11 11 11 11 11 11 11 11 11 11 11 11 11 11 11 11 11 11 11 11 11 11 10 10 10 10 10 10 10 10 10 10 10 10 10 10 10 10 10 10 10 10 10 10 10 10 10 10 10 10 10 10 9 9 8 8 8 8 8 8 8
11 10 10 10 10 10 10 11 11 11 11 11 11 10 10 10 10 10 10 10 10 10 10 10 10 10 10 10 10 10 10 10 10 10 10 10 10 10 10 10 10 10 10 10 10 9 9 9 9 10 10 10 10 10 10 10 10 10 10 10 9 9 9 8 7 7 7 7 7
10 10 10 10 10 10 10 10 10 10 10 10 10 10 10 10 10 10 10 10 10 10 10 10 10 10 10 10 10 10 10 10 10 9 9 9 9 9 9 9 9 9 9 9 9 9 9 9 9 9 9 9 9 9 9 9 9 9 9 9 9 9 9 9 8 7 7 7 7
10 10 10 10 10 10 10 10 10 10 10 10 10 10 10 10 10 10 10 10 10 10 10 10 10 9 9 9 9 9 9 9 9 9 9 9 9 9 9 9 9 9 9 9 9 9 9 9 9 9 9 9 9 9 9 9 9 9 9 9 9 9 8 8 8 8 7 7 7
10 10 10 10 10 10 10 10 10 10 10 10 10 10 10 9 9 9 9 9 9 9 9 9 9 9 9 9 9 9 9 9 9 9 9 9 9 9 9 9 9 9 9 9 9 9 9 8 8 8 8 8 9 9 9 9 9 9 9 9 9 8 8 8 8 8 8 7 7
10 10 10 10 10 10 10 10 10 9 9 9 9 9 9 9 9 9 9 9 9 9 9 9 9 9 9 9 9 9 9 9 9 9 9 9 9 9 9 9 9 9 9 8 8 8 8 8 8 8 8 8 8 8 8 9 9 9 9 9 9 8 8 8 8 7 7 7 7
10 10 10 10 9 9 9 9 9 9 9 9 9 9 9 9 9 9 9 9 9 9 9 9 9 9 9 9 9 9 9 9 9 9 8 8 8 8 8 8 8 8 8 8 8 8 8 8 8 8 8 8 8 8 8 8 8 8 8 8 8 8 8 8 8 7 7 7 7
9 9 9 9 9 9 9 9 9 9 9 9 9 9 9 9 9 9 9 9 9 9 9 9 9 9 9 9 8 8 8 8 8 8 8 8 8 8 8 8 8 8 8 8 8 8 8 8 8 8 8 8 8 8 8 8 8 8 8 8 8 8 8 8 8 7 7 7 7
9 9 9 9 9 9 9 9 9 9 9 9 9 9 9 9 9 9 9 9 8 8 8 8 8 8 8 8 8 8 8 8 8 8 8 8 8 8 8 8 8 8 8 8 8 8 8 8 8 8 8 8 8 8 8 7 7 7 8 8 8 8 8 8 8 7 7 7 7
9 9 9 9 9 9 9 9 9 9 9 8 8 8 8 8 8 8 8 8 8 8 8 8 8 8 8 8 8 8 8 8 8 8 8 8 8 8 8 8 8 8 8 8 8 7 7 7 7 8 8 7 7 7 7 7 7 7 7 7 7 7 8 8 8 8 7 7 7
9 9 9 9 8 8 8 8 8 8 8 8 8 8 8 8 8 8 8 8 8 8 7 7 7 7 7 7 7 7 7 7 7 7 7 7 7 7 7 7 7 7 7 7 7 7 7 7 7 7 7 7 7 7 7 7 7 7 7 7 7 7 7 7 7 7 7 7 7
8 8 8 8 8 8 8 8 8 8 8 8 8 8 8 8 7 7 7 7 7 7 7 7 7 7 7 7 7 7 7 7 7 7 7 7 7 7 7 7 7 7 7 7 7 7 7 7 7 7 7 7 7 7 7 7 7 7 7 6 6 6 6 6 6 6 7 7 7
8 8 8 8 8 7 7 7 7 7 7 7 7 7 7 7 7 7 7 7 7 7 7 7 7 7 7 7 7 7 7 7 7 7 7 7 7 7 7 7 7 7 7 7 7 7 7 7 7 6 6 6 6 6 6 6 6 6 6 6 6 6 5 5 5 5 6 6 6
7 7 7 7 7 7 7 7 7 7 7 7 7 7 7 7 7 7 7 7 7 7 7 7 7 7 7 7 7 7 7 7 7 7 7 7 7 7 7 7 7 7 7 7 7 7 7 7 6 6 6 6 6 6 6 6 6 6 6 5 5 5 4 4 4 4 5 5 5
7 7 7 7 7 7 7 7 7 7 7 7 7 7 7 7 7 7 7 7 7 7 7 7 7 7 7 7 7 7 7 7 7 7 7 7 7 7 7 7 7 7 7 7 7 7 7 7 6 6 6 6 5 5 6 6 6 6 6 5 5 4 4 3 3 3 4 4 4
7 7 7 7 7 7 7 7 7 7 7 7 7 7 6 6 6 6 6 6 6 7 7 7 7 7 7 7 7 7 6 6 6 6 6 6 6 7 7 7 7 7 7 7 7 6 6 6 6 6 6 5 5 5 5 5 5 6 6 6 5 4 4 3 3 3 3 3 4
7 7 7 7 7 7 7 6 6 6 6 6 6 6 6 6 6 6 6 6 6 6 6 6 6 6 6 6 6 6 6 6 6 6 6 6 6 6 6 6 6 6 6 6 6 6 6 6 6 6 5 5 5 5 5 5 5 5 5 5 5 5 4 4 3 3 3 3 3
7 7 7 7 7 6 6 6 6 6 6 6 6 6 6 6 6 6 6 6 6 6 6 6 6 6 6 6 6 6 6 6 6 5 5 5 5 5 5 5 5 5 5 5 5 5 5 5 5 5 5 4 4 4 4 4 4 4 4 4 4 4 4 3 3 2 2 2 3
7 7 6 6 6 6 6 6 6 6 6 6 6 6 6 6 6 6 6 6 6 6 6 6 6 6 6 6 5 5 5 5 5 5 5 5 5 5 5 5 5 5 5 5 4 4 4 4 4 4 4 4 4 3 3 3 3 3 4 4 4 4 3 3 2 2 2 2 3
6 6 6 6 6 6 6 6 6 6 6 6 6 6 6 6 6 6 5 5 5 5 5 5 5 5 5 5 5 5 5 5 5 5 5 5 5 5 5 5 5 5 4 4 4 4 4 4 4 3 3 3 3 3 3 3 3 3 3 3 4 4 3 3 3 2 2 2 2
6 6 6 6 6 6 6 6 6 6 6 5 5 5 5 5 5 5 5 5 5 5 5 5 5 5 5 5 5 5 5 5 5 5 5 5 5 5 5 5 5 5 4 4 4 4 4 4 3 3 3 3 3 3 3 3 3 3 3 3 3 3 3 3 3 2 2 2 2
6 6 6 6 6 6 6 5 5 5 5 5 5 5 5 5 5 5 5 5 5 5 5 5 5 5 5 5 5 5 5 5 5 5 5 5 5 5 5 5 5 5 4 4 4 4 4 4 3 3 3 3 3 2 2 3 3 3 3 3 3 3 3 3 3 3 2 2 2
5 5 5 5 5 5 5 5 5 5 5 5 5 5 5 5 5 5 5 5 5 5 4 4 4 4 4 4 4 4 4 4 4 4 4 4 4 4 4 5 5 5 4 4 4 4 4 4 4 3 3 3 2 2 2 2 2 3 3 3 3 3 3 3 3 2 2 2 2
5 5 5 5 5 5 5 5 5 5 5 5 5 5 5 5 5 5 5 5 5 5 5 5 4 4 4 4 4 4 4 4 4 4 4 4 4 4 4 4 4 4 4 4 4 4 4 4 4 3 3 3 2 2 2 2 2 3 3 3 3 3 3 3 3 2 2 2 1
5 5 5 5 5 5 5 5 5 5 5 5 5 5 5 5 5 5 5 5 5 5 5 5 5 5 5 4 4 4 4 4 4 4 4 4 3 3 3 4 4 4 4 4 4 4 4 3 3 3 3 3 2 2 2 2 2 2 2 3 3 3 3 3 2 2 2 1 1
5 5 5 5 5 5 5 5 5 5 5 5 5 5 5 5 5 5 5 4 5 5 5 5 5 5 5 4 4 4 4 4 4 4 3 3 3 3 3 3 3 3 3 3 3 3 3 3 3 3 2 2 2 2 2 2 2 2 2 2 2 2 2 2 2 2 1 1 1
5 5 5 5 5 5 5 5 5 5 5 5 5 5 5 4 4 4 4 4 4 4 4 4 4 4 4 4 4 4 4 4 3 3 3 3 3 3 2 3 3 3 3 3 3 3 3 3 2 2 2 1 1 1 1 1 1 1 1 1 2 2 2 2 2 1 1 1 1
4 4 4 4 4 4 4 4 4 4 4 4 4 4 4 4 4 4 3 3 3 3 3 3 3 3 3 3 3 3 3 3 3 3 3 3 2 2 2 2 2 3 3 2 2 2 2 2 2 2 1 1 0 0 -0 -0 -0 0 0 0 1 1 1 1 1 1 1 1 0
4 4 4 4 4 4 4 4 4 4 4 4 3 3 3 3 3 3 3 3 3 2 2 2 2 2 2 2 2 2 3 3 3 2 2 2 2 2 2 2 2 2 2 2 2 2 2 2 2 1 1 0 -0 -1 -1 -1 -1 -1 -1 -0 -0 -0 0 0 0 0 0 0 0
4 4 4 4 4 4 3 3 3 3 3 3 3 3 2 2 2 2 2 2 2 2 2 2 2 2 2 2 2 2 2 2 2 2 2 2 2 1 1 1 1 2 2 2 2 1 1 1 1 1 0 -0 -1 -2 -2 -3 -2 -2 -2 -1 -1 -1 -1 -1 -1 -0 -0 -0 0
Height
1489 1490 1490 1491 1491 1492 1492 1492 1493 1493 1493 1494 1495 1495 1495 1495 1495 1495 1495 1495 1495 1495 1495 1495 1495 1495 1495 1495 1496 1496 1497 1497 1497 1498 1498 1498 1498 1498 1498 1498 1497 1497 1496 1496 1495 1495 1494 1494 1493 1493 1493 1493 1493 1493 1492 1492 1491 1490 1489 1489 1488 1487 1486 1485 1485 1484 1484 1483 1483
1489 1489 1490 1490 1491 1491 1492 1492 1492 1493 1493 1493 1494 1494 1495 1495 1495 1495 1495 1495 1495 1495 1495 1495 1495 1495 1495 1495 1495 1495 1495 1496 1496 1496 1497 1497 1497 1497 1497 1496 1496 1495 1495 1495 1494 1493 1493 1492 1492 1492 1491 1491 1491 1490 1490 1490 1489 1488 1487 1486 1486 1485 1484 1484 1483 1483 1482 1482 1482
1488 1488 1489 1489 1490 1490 1491 1491 1492 1492 1493 1493 1493 1494 1494 1494 1494 1494 1494 1494 1494 1494 1494 1494 1494 1494 1494 1494 1494 1495 1495 1495 1495 1495 1496 1496 1496 1496 1495 1495 1495 1494 1494 1493 1492 1492 1491 1491 1490 1490 1490 1489 1489 1488 1488 1487 1487 1486 1485 1485 1484 1483 1483 1482 1482 1481 1481 1480 1480
1487 1487 1488 1488 1489 1489 1490 1490 1491 1491 1492 1492 1493 1493 1494 1494 1494 1494 1494 1494 1494 1494 1494 1493 1493 1493 1493 1493 1494 1494 1494 1494 1495 1495 1495 1495 1495 1494 1494 1493 1493 1492 1492 1491 1490 1490 1490 1489 1489 1488 1488 1487 1487 1486 1485 1485 1485 1484 1483 1483 1482 1482 1481 1481 1480 1480 1480 1480 1479
1486 1487 1487 1488 1488 1489 1489 1490 1490 1491 1491 1492 1492 1493 1493 1493 1493 1492 1492 1492 1492 1492 1492 1493 1493 1493 1493 1493 1493 1493 1493 1493 1493 1493 1493 1493 1492 1492 1492 1491 1491 1490 1490 1489 1489 1488 1488 1487 1487 1486 1486 1485 1485 1484 1484 1483 1483 1482 1481 1481 1481 1480 1480 1480 1479 1479 1479 1479 1478
1486 1486 1487 1487 1488 1489 1489 1490 1490 1491 1491 1492 1492 1492 1492 1492 1492 1491 1491 1491 1491 1492 1492 1492 1492 1492 1492 1492 1492 1492 1492 1492 1492 1491 1491 1491 1490 1490 1490 1489 1489 1488 1488 1488 1487 1487 1486 1486 1485 1484 1484 1483 1482 1482 1481 1481 1481 1480 1480 1480 1479 1479 1479 1479 1478 1478 1478 1478 1477
1486 1486 1487 1487 1488 1489 1490 1490 1491 1491 1492 1492 1492 1492 1491 1491 1491 1491 1491 1491 1491 1491 1491 1491 1491 1491 1491 1491 1491 1491 1491 1490 1490 1490 1490 1489 1489 1488 1488 1487 1487 1487 1487 1486 1486 1485 1485 1484 1484 1483 1482 1481 1480 1480 1480 1480 1479 1479 1478 1478 1478 1478 1478 1477 1477 1477 1477 1477 1476
1486 1486 1487 1488 1488 1489 1490 1490 1491 1491 1492 1492 1492 1491 1491 1491 1491 1491 1491 1491 1491 1491 1491 1491 1491 1491 1491 1491 1490 1490 1490 1489 1489 1489 1488 1488 1487 1487 1486 1486 1486 1486 1485 1485 1485 1484 1484 1483 1482 1482 1481 1480 1480 1479 1478 1478 1477 1477 1476 1476 1476 1476 1476 1476 1476 1476 1476 1475 1475
1486 1487 1487 1488 1489 1490 1490 1491 1491 1492 1492 1492 1492 1491 1491 1491 1490 1490 1490 1490 1490 1490 1490 1490 1490 1490 1490 1490 1490 1489 1489 1488 1488 1487 1487 1486 1486 1486 1485 1485 1485 1485 1485 1484 1484 1483 1482 1482 1481 1480 1480 1479 1478 1478 1477 1476 1476 1475 1475 1475 1475 1475 1474 1475 1475 1475 1475 1474 1474
1487 1487 1488 1489 1489 1490 1490 1491 1491 1491 1492 1491 1491 1491 1490 1490 1490 1490 1490 1490 1490 1490 1490 1490 1489 1489 1489 1489 1489 1488 1488 1487 1487 1486 1486 1486 1485 1485 1485 1484 1484 1484 1484 1483 1483 1482 1481 1480 1480 1479 1479 1478 1477 1476 1476 1475 1475 1474 1473 1473 1473 1473 1473 1473 1473 1473 1473 1473 1473
1487 1488 1489 1489 1490 1490 1490 1491 1491 1491 1491 1491 1490 1490 1490 1489 1489 1489 1489 1489 1489 1489 1489 1489 1488 1488 1488 1488 1487 1487 1487 1486 1486 1485 1485 1485 1485 1484 1484 1484 1483 1483 1483 1482 1482 1481 1480 1479 1478 1478 1477 1477 1476 1475 1475 1474 1473 1472 1471 1471 1471 1471 1471 1471 1471 1471 1471 1471 1471
1488 1488 1489 1489 1490 1490 1490 1490 1490 1490 1490 1490 1490 1489 1489 1489 1489 1489 1488 1488 1488 1488 1488 1488 1488 1487 1487 1487 1486 1486 1486 1485 1485 1485 1484 1484 1484 1483 1483 1483 1482 1482 1481 1481 1480 1480 1479 1478 1477 1476 1475 1475 1474 1474 1473 1472 1471 1471 1470 1470 1469 1469 1469 1469 1470 1470 1470 1470 1470
1488 1489 1489 1489 1489 1490 1490 1490 1490 1490 1490 1489 1489 1489 1489 1488 1488 1488 1488 1488 1487 1487 1487 1487 1487 1486 1486 1486 1485 1485 1485 1484 1484 1483 1483 1483 1482 1482 1482 1481 1481 1481 1480 1480 1479 1479 1478 1477 1476 1475 1474 1473 1473 1472 1471 1470 1470 1469 1469 1468 1468 1467 1467 1467 1467 1468 1468 1468 1468
1488 1488 1489 1489 1489 1489 1489 1489 1489 1489 1489 1489 1488 1488 1488 1488 1488 1487 1487 1487 1486 1486 1486 1486 1486 1485 1485 1485 1484 1484 1483 1483 1482 1482 1481 1481 1481 1481 1480 1480 1480 1479 1479 1478 1478 1477 1476 1475 1475 1474 1473 1472 1471 1470 1469 1469 1468 1467 1467 1466 1466 1466 1465 1465 1465 1465 1466 1465 1465
1488 1488 1488 1488 1488 1488 1488 1488 1488 1488 1488 1488 1487 1487 1487 1487 1486 1486 1486 1485 1485 1485 1485 1484 1484 1484 1484 1483 1482 1482 1481 1481 1481 1480 1480 1480 1480 1479 1479 1479 1478 1478 1477 1477 1476 1476 1475 1474 1473 1472 1471 1470 1469 1469 1468 1467 1466 1465 1465 1465 1464 1464 1464 1464 1464 1464 1463 1463 1463
1487 1487 1487 1487 1487 1487 1487 1487 1487 1487 1487 1486 1486 1486 1486 1485 1485 1485 1485 1484 1484 1483 1483 1483 1482 1482 1482 1481 1481 1480 1480 1480 1479 1479 1479 1478 1478 1478 1477 1477 1477 1476 1476 1475 1475 1474 1473 1473 1472 1470 1470 1468 1467 1467 1466 1465 1465 1464 1464 1463 1463 1462 1462 1462 1462 1461 1461 1461 1460
1486 1486 1486 1486 1486 1486 1486 1486 1486 1486 1485 1485 1485 1485 1484 1484 1484 1483 1483 1482 1482 1482 1481 1481 1481 1480 1480 1480 1480 1479 1479 1478 1478 1478 1477 1477 1477 1476 1476 1475 1475 1475 1474 1474 1473 1472 1471 1471 1470 1469 1468 1467 1465 1465 1464 1463 1463 1462 1462 1461 1461 1460 1460 1460 1460 1459 1459 1458 1458
1485 1485 1485 1485 1485 1485 1485 1485 1485 1485 1484 1484 1484 1483 1483 1483 1482 1482 1481 1481 1480 1480 1480 1479 1479 1479 1478 1478 1478 1478 1477 1477 1477 1476 1476 1475 1475 1475 1474 1474 1474 1473 1472 1472 1471 1470 1469 1468 1468 1467 1465 1465 1464 1463 1462 1461 1460 1460 1460 1459 1459 1458 1458 1458 1457 1457 1456 1456 1455
1485 1485 1485 1485 1485 1485 1484 1484 1484 1484 1483 1483 1483 1482 1482 1481 1481 1480 1480 1480 1479 1479 1478 1478 1477 1477 1477 1477 1476 1476 1476 1476 1475 1475 1475 1474 1474 1473 1473 1472 1471 1471 1470 1470 1469 1468 1467 1466 1465 1464 1463 1462 1461 1460 1459 1459 1458 1457 1457 1457 1456 1456 1456 1455 1455 1454 1454 1454 1453
1485 1484 1484 1484 1484 1484 1483 1483 1483 1482 1482 1482 1481 1481 1480 1480 1480 1479 1479 1478 1478 1477 1477 1476 1476 1476 1475 1475 1475 1475 1475 1474 1474 1473 1473 1472 1472 1471 1470 1470 1469 1468 1468 1467 1466 1465 1464 1463 1462 1461 1460 1460 1459 1458 1457 1456 1455 1455 1454 1454 1453 1453 1453 1453 1452 1452 1451 1451 1450
1484 1484 1483 1483 1483 1483 1482 1482 1481 1481 1480 1480 1480 1479 1479 1478 1478 1477 1477 1477 1476 1476 1475 1475 1475 1474 1474 1474 1474 1473 1473 1472 1472 1471 1470 1470 1469 1469 1468 1467 1466 1466 1465 1465 1464 1463 1462 1461 1460 1459 1458 1457 1456 1455 1454 1454 1453 1452 1451 1451 1450 1450 1450 1450 1450 1449 1449 1448 1448
1483 1483 1482 1482 1482 1481 1481 1480 1480 1480 1479 1479 1478 1478 1477 1477 1476 1476 1475 1475 1475 1474 1474 1473 1473 1473 1472 1472 1472 1471 1471 1470 1470 1469 1468 1467 1466 1466 1465 1465 1464 1463 1462 1462 1461 1460 1459 1458 1457 1456 1455 1455 1454 1453 1452 1451 1450 1449 1449 1448 1447 1447 1447 1446 1446 1446 1446 1445 1445
1482 1481 1481 1481 1480 1480 1480 1479 1479 1478 1478 1477 1476 1476 1475 1475 1475 1474 1474 1473 1473 1472 1472 1472 1471 1471 1470 1470 1470 1469 1468 1467 1467 1466 1465 1464 1464 1463 1462 1461 1461 1460 1459 1459 1458 1457 1456 1455 1454 1453 1452 1451 1450 1450 1449 1448 1447 1446 1445 1445 1444 1444 1444 1443 1443 1443 1442 1442 1442
1480 1480 1480 1479 1479 1478 1478 1477 1477 1476 1476 1475 1475 1475 1474 1474 1473 1473 1472 1472 1471 1471 1470 1470 1470 1469 1468 1468 1467 1466 1465 1464 1464 1463 1462 1461 1461 1460 1460 1459 1458 1457 1456 1456 1455 1455 1453 1452 1451 1450 1449 1448 1447 1447 1446 1445 1444 1444 1443 1442 1441 1441 1440 1440 1440 1440 1439 1439 1439
1479 1478 1478 1478 1477 1477 1476 1476 1475 1475 1475 1474 1474 1473 1473 1472 1472 1471 1471 1470 1470 1469 1469 1468 1467 1467 1466 1465 1465 1464 1463 1462 1461 1460 1459 1459 1458 1457 1457 1456 1455 1455 1454 1453 1453 1452 1451 1450 1449 1448 1446 1445 1445 1443 1443 1442 1441 1441 1440 1440 1439 1438 1437 1437 1437 1436 1436 1436 1436
1477 1477 1477 1476 1476 1475 1475 1475 1474 1474 1473 1473 1473 1472 1471 1471 1470 1470 1469 1469 1468 1467 1467 1466 1465 1465 1464 1463 1462 1461 1460 1460 1458 1457 1456 1456 1455 1455 1454 1453 1453 1452 1451 1450 1450 1449 1449 1448 1447 1446 1445 1443 1442 1441 1440 1439 1438 1438 1437 1436 1436 1435 1435 1434 1433 1433 1434 1434 1433
1476 1476 1476 1475 1475 1475 1474 1474 1473 1473 1472 1472 1471 1471 1470 1470 1469 1468 1468 1467 1466 1465 1465 1464 1463 1462 1461 1460 1460 1459 1458 1457 1456 1455 1454 1453 1452 1452 1451 1450 1450 1449 1448 1448 1447 1446 1445 1445 1444 1443 1442 1441 1440 1439 1437 1436 1435 1435 1434 1433 1433 1432 1432 1431 1430 1430 1430 1430 1430
1475 1475 1475 1475 1474 1474 1473 1473 1472 1472 1471 1470 1470 1469 1469 1468 1467 1466 1466 1465 1464 1463 1463 1462 1461 1460 1459 1458 1457 1456 1455 1455 1454 1452 1451 1450 1450 1449 1448 1447 1446 1446 1445 1444 1444 1443 1442 1441 1441 1440 1440 1439 1437 1436 1435 1434 1432 1432 1431 1430 1430 1429 1429 1428 1428 1427 1427 1427 1427
1475 1475 1474 1474 1473 1473 1472 1472 1471 1470 1470 1469 1468 1468 1467 1466 1465 1465 1464 1463 1462 1461 1460 1459 1458 1457 1456 1455 1454 1453 1452 1451 1450 1449 1448 1447 1446 1445 1445 1444 1443 1443 1442 1441 1440 1440 1439 1438 1437 1437 1436 1435 1434 1433 1432 1431 1430 1429 1428 1427 1427 1426 1425 1425 1425 1424 1424 1424 1424
1474 1474 1473 1473 1472 1472 1471 1470 1470 1469 1468 1467 1467 1466 1465 1464 1463 1462 1461 1460 1459 1458 1457 1456 1455 1454 1453 1452 1451 1450 1449 1448 1447 1446 1445 1444 1443 1442 1441 1441 1440 1439 1439 1438 1437 1436 1436 1435 1434 1434 1433 1432 1431 1430 1429 1428 1427 1425 1425 1424 1423 1423 1423 1422 1421 1421 1421 1421 1421
1473 1473 1472 1471 1471 1470 1470 1469 1468 1467 1466 1465 1465 1464 1463 1462 1460 1460 1458 1457 1456 1455 1455 1454 1452 1451 1450 1449 1448 1447 1446 1445 1444 1443 1442 1441 1440 1439 1438 1438 1437 1436 1436 1435 1435 1434 1433 1432 1431 1430 1430 1429 1428 1427 1425 1425 1423 1422 1421 1420 1420 1420 1419 1419 1418 1418 1418 1418 1418
1472 1471 1470 1470 1469 1468 1468 1467 1466 1465 1464 1463 1462 1461 1460 1459 1458 1457 1456 1455 1454 1453 1452 1451 1450 1449 1448 1447 1446 1445 1444 1443 1442 1441 1440 1439 1438 1437 1436 1435 1435 1434 1433 1433 1432 1431 1430 1429 1428 1427 1426 1426 1425 1423 1422 1421 1420 1419 1418 1417 1416 1416 1416 1415 1415 1415 1414 1414 1414
1470 1470 1469 1468 1467 1466 1465 1465 1464 1463 1462 1461 1460 1459 1458 1457 1456 1455 1455 1454 1452 1451 1450 1450 1449 1448 1446 1445 1445 1444 1443 1442 1441 1440 1439 1437 1436 1435 1434 1433 1432 1432 1431 1430 1429 1428 1427 1426 1425 1425 1424 1423 1421 1420 1419 1418 1417 1415 1415 1414 1413 1413 1412 1412 1411 1411 1411 1411 1410
1469 1468 1467 1466 1465 1465 1464 1463 1462 1461 1460 1460 1459 1458 1457 1456 1455 1454 1453 1452 1451 1450 1450 1449 1448 1446 1445 1445 1443 1442 1441 1440 1439 1438 1437 1436 1435 1433 1432 1431 1430 1430 1429 1428 1427 1426 1425 1424 1423 1422 1421 1420 1419 1417 1415 1414 1413 1412 1411 1410 1410 1409 1409 1408 1408 1407 1407 1407 1407
1467 1466 1465 1465 1464 1463 1462 1461 1460 1460 1459 1458 1457 1456 1455 1455 1454 1453 1452 1451 1450 1449 1448 1447 1446 1445 1444 1443 1442 1441 1440 1438 1437 1436 1435 1434 1433 1431 1430 1429 1428 1428 1427 1426 1425 1424 1423 1422 1421 1420 1419 1417 1416 1414 1413 1411 1410 1408 1407 1406 1406 1405 1405 1405 1404 1404 1403 1403 1403
1466 1465 1464 1463 1463 1462 1461 1460 1460 1459 1458 1457 1456 1455 1455 1454 1453 1452 1451 1450 1449 1448 1447 1446 1445 1444 1442 1441 1440 1439 1438 1436 1435 1434 1433 1432 1430 1429 1427 1426 1426 1425 1425 1425 1423 1422 1421 1420 1419 1417 1416 1415 1413 1411 1410 1409 1407 1405 1404 1403 1402 1401 1401 1401 1400 1400 1400 1399 1399
1465 1464 1463 1462 1462 1461 1460 1460 1459 1458 1457 1456 1455 1455 1454 1453 1452 1451 1450 1449 1447 1446 1445 1444 1443 1442 1441 1439 1438 1437 1436 1435 1433 1432 1430 1430 1428 1427 1425 1424 1423 1422 1422 1422 1421 1420 1419 1418 1416 1415 1414 1412 1410 1409 1407 1406 1404 1403 1401 1400 1399 1398 1398 1397 1397 1396 1396 1395 1395
1464 1463 1462 1462 1461 1460 1460 1459 1458 1457 1456 1455 1455 1454 1453 1452 1451 1450 1449 1448 1446 1445 1444 1443 1442 1440 1439 1438 1436 1435 1434 1433 1432 1430 1429 1427 1426 1425 1423 1421 1420 1420 1419 1419 1418 1417 1416 1415 1414 1413 1412 1410 1408 1406 1405 1403 1402 1400 1399 1397 1396 1395 1395 1394 1393 1392 1392 1391 1391
1463 1463 1462 1461 1460 1460 1459 1458 1457 1456 1455 1455 1454 1453 1452 1451 1450 1449 1448 1447 1445 1444 1442 1441 1440 1439 1438 1436 1435 1433 1432 1431 1430 1429 1427 1425 1424 1423 1421 1419 1417 1417 1416 1416 1415 1415 1414 1413 1412 1410 1410 1408 1406 1405 1403 1401 1399 1397 1396 1395 1393 1392 1391 1391 1390 1389 1388 1388 1388
1463 1462 1461 1461 1460 1459 1458 1457 1457 1456 1455 1454 1453 1452 1451 1450 1449 1448 1446 1445 1444 1443 1441 1440 1438 1437 1436 1434 1433 1431 1430 1429 1428 1427 1426 1424 1422 1421 1419 1417 1415 1414 1414 1414 1413 1412 1411 1410 1409 1408 1407 1406 1404 1402 1401 1399 1397 1395 1394 1392 1391 1390 1388 1387 1387 1386 1385 1384 1384
1462 1461 1461 1460 1459 1458 1457 1456 1455 1455 1454 1453 1452 1450 1449 1448 1447 1446 1445 1444 1442 1441 1439 1438 1436 1435 1434 1432 1430 1429 1427 1426 1425 1425 1424 1422 1420 1419 1417 1415 1413 1412 1411 1411 1410 1409 1408 1407 1406 1405 1405 1403 1402 1400 1399 1397 1395 1393 1391 1390 1389 1388 1386 1385 1384 1383 1382 1381 1380
Wind_Speed
6 5 5 5 4 4 3 2 2 1 1 1 1 1 1 2 2 3 4 4 5 5 6 6 6 7 8 9 9 10 11 12 13 14 15 16 17 19 20 21 22 23 23 23 23 23 23 23 22 23 23 23 23 22 22 23 23 23 24 24 25 25 25 24 24 24 23 23 23
7 6 6 5 5 4 4 3 2 1 1 1 2 2 2 2 2 3 4 5 5 6 6 7 7 8 8 9 10 11 11 12 13 14 14 15 16 17 18 19 20 21 21 22 22 22 23 23 23 23 23 24 23 23 22 22 22 22 22 22 23 23 23 23 23 22 22 21 21
7 7 6 5 5 5 4 3 2 1 0 1 2 2 2 3 3 4 5 6 7 7 8 8 9 9 9 10 10 11 12 12 13 14 14 15 16 16 17 18 19 20 21 22 22 22 23 23 23 24 24 24 24 23 23 22 21 21 21 21 22 22 22 22 21 21 20 20 20
7 6 6 5 5 5 5 4 3 2 1 0 1 2 2 2 3 4 5 6 7 8 8 9 9 9 10 10 11 11 12 13 14 15 15 16 17 18 19 20 20 21 21 22 22 23 23 23 23 23 24 24 24 24 23 22 21 21 21 21 21 21 21 21 20 20 20 20 20
6 5 5 4 3 3 2 2 1 1 1 1 1 2 2 2 3 4 5 6 6 7 8 9 9 10 10 11 12 12 13 14 15 16 17 18 18 19 19 20 20 20 21 21 22 22 22 22 23 23 24 24 24 23 22 21 20 20 20 21 21 21 20 20 20 20 20 20 20
6 6 6 5 5 4 4 3 3 2 2 1 2 2 2 3 4 5 5 6 7 8 9 9 10 11 12 13 13 14 15 16 16 17 18 18 19 19 20 20 20 21 21 21 22 22 22 23 23 23 24 24 24 23 22 21 20 20 20 20 20 20 20 20 20 20 21 21 21
8 8 7 7 6 5 4 3 2 1 1 1 1 2 3 4 5 6 6 7 8 9 10 10 11 12 13 14 15 15 16 17 18 18 19 20 20 21 21 22 22 23 23 23 23 24 24 24 24 24 24 24 24 23 22 21 21 21 21 21 21 21 21 21 21 21 22 22 21
9 8 8 7 6 5 4 3 2 1 0 1 1 2 3 4 5 6 7 8 9 10 11 11 12 13 14 15 15 16 17 18 19 20 20 21 22 23 23 24 24 25 25 25 25 25 25 25 25 24 24 23 23 23 23 22 22 22 22 22 22 22 22 22 22 22 22 22 22
8 7 7 6 5 4 3 2 1 1 1 2 2 3 4 5 5 6 7 8 9 10 11 12 13 14 15 15 16 17 18 19 20 21 21 22 23 24 24 25 26 26 26 26 26 27 27 26 26 25 24 23 23 22 22 21 21 22 22 23 23 24 24 24 25 25 25 24 23
8 7 6 5 5 4 3 2 2 2 2 3 4 4 5 6 7 7 8 9 10 11 12 13 14 15 16 16 17 18 19 19 20 21 22 22 23 24 24 25 26 26 26 26 26 27 27 27 27 26 25 24 23 23 22 21 21 21 22 22 23 24 24 24 26 27 27 27 26
7 7 6 5 5 4 3 3 3 3 3 4 5 6 6 7 8 9 10 11 11 12 13 14 15 16 16 17 18 18 19 20 20 21 21 22 22 23 23 24 24 25 25 25 26 26 26 26 26 26 26 25 25 24 23 22 22 22 22 22 22 22 23 24 25 26 28 29 29
7 6 5 4 4 3 3 3 3 4 5 5 6 7 8 8 9 10 10 11 12 12 13 14 15 16 16 17 18 18 19 19 20 20 21 21 21 22 22 22 23 23 23 24 24 24 25 25 25 26 26 26 25 25 24 24 23 23 22 22 21 22 22 23 24 25 26 28 29
5 5 4 3 3 3 3 4 4 5 6 6 7 7 8 9 10 10 11 11 12 13 13 14 15 16 16 17 18 18 18 19 19 20 20 20 21 21 21 22 22 22 22 22 22 23 23 23 24 25 25 25 25 25 25 25 24 24 23 23 22 22 22 23 23 24 25 26 28
4 3 3 3 3 4 4 5 6 6 7 7 8 9 9 10 11 11 12 12 13 14 14 15 15 16 17 17 18 18 19 19 20 20 20 20 21 21 21 21 21 21 22 22 22 22 22 22 23 23 24 25 25 25 25 25 25 25 24 24 23 23 23 23 23 23 24 26 27
3 3 4 4 5 5 6 7 7 8 9 9 10 11 11 12 12 13 14 14 15 15 16 17 17 17 18 19 19 20 20 21 21 21 21 22 22 22 22 22 22 22 22 22 22 22 22 22 23 23 24 24 25 25 25 25 25 25 25 25 24 24 24 24 23 24 24 25 27
4 5 5 6 7 7 8 9 9 10 11 11 12 13 13 14 15 15 16 17 17 18 18 19 19 20 20 21 21 22 22 23 23 23 23 24 24 24 24 24 24 25 25 25 25 24 24 24 24 24 25 25 25 25 25 25 25 25 25 25 25 24 24 24 24 24 25 25 27
6 6 7 8 9 9 10 11 12 12 13 14 14 15 16 16 17 18 18 19 20 20 21 21 21 22 22 23 23 24 24 25 25 25 25 26 26 26 26 26 27 27 27 27 27 27 27 27 26 26 26 27 27 27 27 27 26 26 25 25 25 25 25 24 24 24 25 25 27
8 8 9 10 11 12 12 13 14 14 15 16 17 17 18 19 19 20 20 21 22 22 23 23 23 24 24 24 25 25 26 26 26 27 27 27 27 27 28 28 28 28 28 28 29 29 29 29 28 28 28 28 28 29 29 29 29 28 27 26 26 25 25 25 24 24 25 26 26
9 10 11 12 13 13 14 15 16 17 17 18 19 19 20 20 21 21 22 22 23 23 24 24 24 25 25 25 25 26 26 26 27 27 27 27 28 28 28 28 28 28 29 29 29 29 29 29 30 29 29 29 29 30 30 30 30 30 29 29 27 26 26 25 25 25 25 25 26
11 12 13 14 14 15 16 17 17 18 19 19 20 20 21 21 21 22 22 22 23 23 24 24 24 25 25 25 25 25 26 26 26 27 27 27 27 27 28 28 28 28 28 28 28 29 29 29 29 29 29 29 29 29 30 30 31 31 31 31 30 29 28 26 26 25 25 25 25
13 14 14 15 16 16 17 18 18 19 19 20 20 20 21 21 21 21 22 22 22 23 23 23 24 24 25 25 25 25 25 26 26 26 27 27 27 27 27 27 28 28 28 27 27 27 28 28 28 28 28 28 28 29 29 30 30 31 31 32 32 31 30 29 28 27 26 26 25
14 15 15 16 16 17 17 18 18 19 19 20 20 20 21 21 22 22 22 23 23 23 23 24 24 24 25 25 25 25 26 26 26 26 26 27 27 27 27 27 27 28 27 27 27 27 27 27 27 27 27 27 27 28 28 29 29 30 31 32 32 32 32 31 30 29 28 27 26
15 15 16 16 16 17 17 18 18 18 19 20 20 21 21 22 22 23 23 23 24 24 24 24 25 25 25 25 26 26 26 26 26 27 27 27 27 27 27 28 28 28 28 28 27 27 27 27 27 27 26 27 27 27 28 28 29 29 30 31 31 32 32 32 32 31 31 30 29
15 15 16 16 16 17 17 18 18 19 19 20 20 21 21 22 22 23 23 23 24 24 25 25 25 25 26 26 26 26 27 27 27 28 28 28 28 28 28 28 28 28 28 28 28 28 28 28 28 28 27 27 28 28 28 28 29 29 29 30 31 32 32 32 32 32 32 32 31
15 16 16 17 17 17 18 18 19 19 19 20 20 21 21 21 22 22 23 23 23 24 24 25 25 25 26 26 26 26 27 27 28 28 28 28 28 28 28 28 28 28 28 28 28 28 28 28 28 28 28 29 29 29 29 30 29 29 29 30 31 32 32 33 33 32 32 32 33
16 16 16 17 17 17 18 18 18 19 19 19 19 20 20 21 21 21 22 22 22 23 23 24 24 25 25 25 26 26 26 27 27 28 28 28 29 29 29 29 29 29 29 29 29 28 28 28 28 28 28 29 29 30 31 31 31 31 30 30 31 32 33 33 33 33 32 32 32
16 16 16 16 16 17 17 17 18 18 18 18 19 19 19 20 20 21 21 21 22 22 23 23 23 24 24 25 25 25 26 26 27 27 28 28 28 29 29 29 29 29 29 30 30 30 30 30 29 29 29 29 30 30 31 32 32 32 32 32 32 32 33 34 34 34 34 33 32
15 15 15 16 16 16 16 17 17 17 18 18 19 19 19 20 20 21 21 22 22 23 23 23 24 24 25 25 26 26 26 27 27 28 28 29 29 29 30 30 30 30 31 31 31 31 31 31 31 31 30 30 30 31 31 32 33 33 33 33 33 33 34 34 35 35 35 34 33
14 15 15 15 15 16 16 17 17 18 18 19 19 20 20 21 21 22 22 23 23 24 24 25 25 26 26 27 27 28 28 29 29 29 30 30 30 31 31 31 31 31 32 32 32 32 32 32 32 32 32 32 32 32 32 33 33 33 34 34 34 34 35 35 35 35 35 35 35
14 14 15 16 16 17 17 18 18 19 20 20 21 21 22 22 23 24 24 25 25 26 26 27 28 28 29 29 30 30 30 31 31 31 32 32 32 32 32 32 32 32 32 32 32 32 32 33 33 33 33 33 33 33 33 33 33 34 34 34 35 35 35 35 35 34 34 34 35
15 16 16 17 18 18 19 20 20 21 21 22 23 23 24 24 25 26 26 27 28 28 29 29 30 30 31 31 31 32 32 33 33 33 33 34 34 34 34 34 34 34 33 33 33 33 33 33 33 33 33 33 33 34 34 34 34 34 35 35 35 35 35 35 35 35 35 35 36
17 18 18 19 20 20 21 22 23 23 24 25 25 26 26 27 27 28 29 29 30 30 31 31 31 32 32 32 33 33 33 33 34 34 34 35 35 35 35 35 35 35 35 35 34 34 34 34 34 34 34 34 34 34 34 34 34 35 35 35 35 35 35 35 35 36 36 36 36
19 20 21 21 22 23 24 25 25 26 27 27 28 28 29 29 30 30 30 31 31 32 32 32 33 33 33 33 34 34 34 34 34 34 34 35 35 36 36 36 36 36 36 36 35 35 35 35 35 35 35 35 35 35 35 35 35 35 35 35 35 35 35 35 35 36 36 36 36
21 22 23 24 25 25 26 27 28 28 29 29 30 30 31 31 32 32 32 33 33 33 33 34 34 34 34 34 34 34 34 35 34 34 34 35 35 36 36 36 36 36 36 36 36 36 36 36 36 36 36 35 36 36 36 36 36 36 36 36 36 35 35 35 35 35 36 36 36
23 24 25 26 26 27 28 29 29 30 30 31 31 31 32 32 33 34 34 35 35 35 35 35 35 35 35 35 35 35 36 36 36 36 36 36 36 36 37 37 37 36 36 36 36 36 36 36 36 36 36 36 36 37 37 37 37 37 37 37 37 36 35 34 34 35 35 35 36
25 26 26 27 28 28 29 30 30 31 31 32 32 33 33 34 34 34 35 36 36 36 36 37 37 37 37 38 38 38 38 38 38 38 38 38 37 38 38 38 38 37 37 36 36 36 36 36 36 36 36 36 36 37 37 37 38 38 38 38 38 37 36 35 34 34 34 35 35
26 27 27 28 29 29 30 30 31 31 32 32 33 33 34 34 34 35 36 36 37 37 37 38 38 38 39 39 39 39 39 39 39 40 40 39 39 39 40 40 40 39 38 37 37 36 36 36 36 36 36 36 36 36 36 37 37 38 38 39 39 38 38 37 36 35 34 34 34
26 27 28 29 29 30 30 31 31 32 32 32 33 33 34 34 34 35 35 36 37 37 38 38 38 38 39 39 40 40 40 40 40 40 41 41 40 40 41 41 42 41 40 39 38 37 36 35 35 35 35 34 35 35 35 36 36 37 38 38 39 39 38 38 37 36 36 35 34
27 27 28 29 29 30 30 31 31 32 32 32 33 33 33 34 34 35 35 36 36 37 37 38 38 38 38 39 40 40 40 40 40 40 41 41 41 41 41 42 42 42 41 40 39 37 36 35 34 34 33 33 33 33 34 35 36 36 37 38 38 39 39 39 38 38 37 37 35
27 28 28 29 29 30 30 30 31 31 32 32 32 33 33 34 34 34 35 35 35 36 36 37 37 38 38 39 39 40 40 40 40 40 40 41 41 41 42 42 42 43 42 41 39 38 36 35 34 33 32 32 32 32 32 33 34 36 36 37 37 38 39 39 39 39 39 38 37
27 27 28 28 29 29 30 30 30 31 31 31 32 32 33 33 33 34 34 34 35 35 36 36 37 37 38 38 39 39 40 40 40 40 40 40 41 41 41 41 42 42 42 41 40 39 37 36 34 33 32 31 30 30 31 32 34 35 36 36 37 38 39 40 40 40 40 40 39
Wind_Direction
139 141 142 144 146 145 139 126 110 94 72 22 344 329 321 313 307 307 310 315 318 319 317 313 307 303 301 300 301 303 304 304 304 303 301 299 298 298 297 297 298 298 297 296 294 293 291 291 290 291 291 291 291 291 290 290 289 289 289 289 290 290 291 291 292 291 290 289 287
132 135 137 140 143 141 134 120 106 77 28 4 353 348 346 345 342 340 339 339 338 335 333 329 324 321 320 318 315 314 313 312 309 307 304 302 300 298 297 297 296 295 294 293 291 290 289 289 289 289 290 290 291 292 293 293 293 293 292 293 293 293 293 294 294 294 293 292 290
142 145 149 155 159 158 153 150 156 167 317 341 337 338 341 344 344 344 344 342 338 335 334 332 329 327 324 321 317 313 311 308 305 302 299 297 295 293 293 292 291 290 290 289 289 289 289 289 289 289 290 291 291 293 294 295 295 295 295 295 295 295 295 296 296 296 296 295 294
148 152 157 164 167 166 165 168 176 187 213 316 335 342 346 347 345 341 336 332 330 328 326 325 324 320 317 313 309 305 302 299 296 293 290 288 287 286 286 287 287 288 289 290 290 291 291 292 292 291 291 291 291 292 294 296 297 297 297 296 295 295 295 296 297 298 299 299 298
136 138 141 143 143 141 137 131 111 71 33 16 7 356 345 334 328 324 321 319 319 317 315 312 311 308 305 301 297 294 291 289 287 286 285 284 285 286 287 289 291 293 294 296 298 299 299 299 298 297 296 294 293 293 294 296 297 297 297 296 296 296 296 297 298 299 300 301 301
115 114 111 105 97 87 79 70 62 53 41 22 7 351 335 324 318 315 314 312 307 303 300 299 297 294 292 290 289 287 286 286 286 287 288 288 290 291 293 295 297 299 301 303 304 305 306 306 305 304 302 301 299 297 296 297 297 297 296 296 295 295 295 296 298 298 299 299 299
109 107 104 101 97 94 91 90 89 82 61 5 330 314 309 310 307 306 304 301 298 295 294 292 291 290 290 290 291 291 292 292 293 294 295 296 296 297 299 300 301 302 303 304 305 306 306 307 308 307 307 306 305 303 300 298 297 296 296 296 295 294 294 294 295 295 295 294 294
109 108 107 106 107 108 109 111 114 116 86 299 299 299 301 301 301 301 300 299 299 299 298 297 297 297 297 298 299 300 300 300 300 300 300 300 300 300 300 300 301 301 302 303 303 304 304 304 305 306 307 308 308 306 303 300 297 295 295 295 295 295 295 294 293 293 292 291 291
109 108 107 107 108 107 106 102 90 50 355 330 321 317 314 311 308 307 307 307 307 306 305 305 305 305 305 305 305 304 304 303 302 301 300 300 300 299 299 299 299 299 300 301 302 302 302 302 302 302 304 305 307 306 304 301 297 294 293 293 294 295 297 297 296 295 294 293 291
108 105 104 101 98 93 85 73 53 25 5 351 341 333 328 324 320 318 317 315 314 313 312 310 308 307 307 306 304 303 302 301 300 299 299 298 298 298 298 298 298 298 299 299 300 301 301 301 301 301 301 302 303 304 303 301 299 295 292 291 292 294 296 297 298 297 297 296 294
106 103 100 95 89 80 68 50 31 11 358 350 343 337 332 328 325 321 319 316 315 315 312 310 308 307 305 304 303 302 301 300 300 299 299 298 298 298 298 298 298 298 299 299 300 301 301 301 301 301 301 300 301 301 301 301 300 297 295 292 291 292 293 293 294 295 295 296 295
98 94 89 81 70 56 36 17 2 352 345 340 336 332 329 326 323 319 316 314 313 312 310 308 307 307 305 304 303 303 302 302 302 301 301 301 300 300 300 300 300 300 300 301 301 301 302 302 302 302 302 301 301 301 301 300 300 298 297 295 293 291 289 289 290 291 292 292 293
80 72 63 50 34 16 358 346 339 335 332 330 327 325 323 320 317 315 313 311 310 309 308 307 307 307 306 306 305 305 304 304 304 304 304 304 303 303 302 302 302 302 302 302 303 303 303 304 304 304 304 303 303 302 302 301 300 299 298 297 296 293 291 289 289 288 288 288 288
53 41 28 12 357 344 334 329 327 324 323 322 320 319 317 315 313 311 310 309 308 307 306 306 306 306 306 306 305 305 304 304 304 304 304 304 304 304 303 303 303 303 303 303 303 304 305 305 305 305 305 305 304 304 304 304 303 302 301 300 298 297 295 293 291 289 288 286 285
19 4 352 342 334 328 323 321 320 319 319 318 316 315 313 312 311 310 309 308 306 306 305 305 304 304 304 304 303 303 302 302 302 302 302 301 301 301 301 301 301 302 302 302 302 303 303 305 305 306 306 306 305 305 306 305 305 304 303 302 300 298 296 294 293 291 289 287 286
348 339 333 328 324 321 319 317 317 316 315 314 313 311 310 309 308 307 306 305 304 303 303 302 301 301 300 300 300 300 299 299 299 298 298 298 298 298 298 298 298 299 299 299 299 300 300 301 303 304 304 304 304 305 305 305 305 304 304 303 301 299 297 295 294 292 290 288 287
330 326 323 320 318 316 314 314 313 312 311 310 309 308 307 306 305 304 304 303 301 300 300 299 298 298 297 297 296 296 296 296 296 296 296 296 296 296 296 296 296 296 296 297 297 297 298 298 299 300 301 301 302 302 302 302 302 302 302 302 301 300 299 297 295 293 290 289 288
320 317 315 314 312 311 310 309 309 308 307 306 305 304 304 303 302 301 300 300 299 298 297 296 296 295 295 294 294 294 294 294 294 294 294 295 295 295 295 295 295 295 295 295 296 296 296 297 297 298 298 298 299 299 299 299 299 299 299 299 299 299 298 297 295 293 291 289 288
314 312 311 310 309 308 307 307 306 305 304 303 302 302 301 300 300 299 298 298 298 297 297 296 295 295 295 294 294 294 294 294 294 294 294 294 294 295 295 295 295 295 295 295 295 295 296 296 296 296 296 296 296 296 296 296 296 296 296 296 296 296 296 295 294 292 290 289 288
313 311 310 310 309 308 307 306 306 305 304 303 302 302 301 301 300 300 300 299 299 299 299 298 298 297 296 296 296 295 295 295 295 295 295 295 295 295 295 295 295 295 295 296 296 296 296 296 295 295 295 295 294 294 293 293 294 293 293 293 293 293 292 292 292 291 289 288 287
314 313 312 311 311 310 309 309 308 307 306 306 305 305 304 304 304 303 303 302 302 302 301 301 300 300 299 298 298 297 297 297 297 296 296 296 295 295 295 295 295 295 295 296 296 296 296 296 296 295 294 293 292 291 291 290 290 290 291 291 291 290 290 290 289 289 288 287 286
316 315 314 313 313 312 312 311 310 310 309 309 308 308 307 307 307 306 306 305 304 304 303 302 301 301 300 300 299 299 298 298 298 297 297 297 296 296 296 296 296 296 296 296 296 297 297 296 296 295 294 293 291 290 289 288 288 288 288 288 288 288 289 288 288 287 286 286 285
318 318 317 317 316 315 314 313 312 312 311 310 310 309 309 309 308 308 307 307 306 305 304 303 302 301 301 300 300 300 299 299 298 298 297 297 297 297 297 296 296 296 296 296 296 297 297 297 297 296 295 294 292 291 289 288 287 287 287 287 287 286 286 286 286 286 286 285 284
322 322 321 320 319 318 317 315 314 314 313 312 312 311 311 310 309 309 308 307 306 306 304 304 303 302 302 301 300 300 300 299 298 298 297 297 297 296 296 296 296 296 296 296 296 296 297 297 297 297 297 296 295 294 292 290 289 288 288 288 287 287 286 285 285 285 285 286 285
327 326 325 324 323 321 320 319 318 317 316 315 315 314 313 312 311 310 309 308 307 306 306 305 304 303 303 302 301 301 300 299 299 298 298 297 296 296 296 296 295 295 295 296 295 296 296 296 297 297 297 297 296 296 294 293 292 290 289 288 287 287 286 285 284 283 284 285 286
330 329 328 326 325 324 323 322 321 321 320 319 318 317 316 315 314 313 312 311 310 309 308 307 306 305 305 304 303 302 302 301 300 300 299 299 298 298 297 297 297 297 296 296 296 296 296 295 295 296 296 296 296 295 295 294 292 291 289 287 286 285 285 284 283 282 281 282 283
332 331 330 329 328 327 326 325 325 324 324 323 322 321 320 319 318 317 316 315 314 312 311 310 310 309 309 308 307 306 306 305 304 304 304 303 303 302 302 301 301 301 300 300 299 299 298 297 297 296 296 296 295 294 293 293 292 290 289 287 285 283 283 282 282 281 280 279 279
333 332 332 331 331 331 330 330 329 329 328 328 327 326 325 324 323 322 321 320 318 317 316 316 315 315 315 314 313 313 312 311 311 310 310 309 308 308 307 307 306 306 305 305 304 303 302 301 300 299 299 297 296 295 293 292 291 290 289 287 285 283 282 281 281 282 281 280 280
335 335 335 335 335 335 335 335 334 334 333 332 332 331 330 328 327 326 325 324 324 323 323 322 322 322 321 321 320 319 318 318 317 316 316 315 314 313 312 311 311 310 309 308 308 307 306 305 304 302 301 300 299 297 295 293 292 290 289 287 285 284 282 282 281 281 281 281 282
339 340 340 340 340 340 339 339 338 338 337 336 335 334 333 332 331 330 330 329 329 329 329 328 328 327 326 326 325 324 323 322 322 321 320 319 317 316 315 314 314 313 312 311 310 309 308 307 306 304 303 302 300 299 297 295 293 291 289 287 285 284 282 282 281 279 278 277 278
345 345 344 344 343 343 342 342 341 341 340 339 338 337 336 335 335 335 334 334 333 333 332 331 331 330 329 328 327 326 325 324 323 322 321 320 319 317 316 316 315 314 314 313 312 311 310 308 307 306 305 303 302 300 298 296 294 292 290 288 286 284 282 281 280 278 275 273 272
348 348 347 346 345 344 344 343 343 342 342 341 340 339 338 338 338 337 336 335 335 334 333 332 331 330 329 328 327 326 324 323 322 321 320 319 318 317 316 315 315 314 314 313 313 312 311 310 309 308 306 305 303 301 299 297 295 293 291 289 287 285 283 281 279 278 276 273 271
350 349 348 347 346 345 344 344 343 343 342 341 341 340 339 338 337 336 335 335 334 333 332 331 330 329 328 327 326 324 323 322 321 320 319 318 317 315 315 314 313 313 313 313 313 312 311 310 309 308 307 306 304 302 300 298 296 294 292 290 288 286 284 282 280 278 276 275 273
350 349 348 347 346 345 344 344 343 342 341 340 339 338 337 336 335 334 333 332 331 330 330 328 328 327 326 325 324 322 321 320 319 318 317 316 315 314 313 312 312 312 312 312 311 311 310 310 309 308 307 306 305 303 301 300 298 295 293 291 289 287 285 283 281 279 277 275 273
349 348 347 346 345 344 343 342 340 339 338 337 336 335 334 333 332 331 330 328 327 326 325 324 324 323 322 321 321 320 320 319 318 317 316 316 315 314 313 311 311 311 311 311 310 309 309 308 308 307 307 306 305 303 302 300 299 297 295 294 292 290 287 285 283 281 278 276 273
348 346 345 344 343 341 340 339 337 336 335 333 332 331 329 328 328 327 326 324 323 322 321 320 319 319 318 318 318 318 318 318 317 316 316 316 315 315 313 312 311 310 310 310 310 309 308 308 307 307 306 305 304 303 302 300 299 298 297 295 294 292 291 289 287 285 282 279 276
346 344 342 341 339 338 336 335 333 332 330 329 328 327 326 324 323 322 321 321 320 318 317 316 315 315 315 315 315 315 315 315 316 315 315 315 315 315 314 312 311 310 310 310 310 309 309 308 307 306 306 305 304 302 301 299 298 297 296 295 294 293 292 291 290 289 286 283 279
342 341 339 337 335 334 332 331 329 328 326 325 324 323 322 321 320 319 318 318 318 317 315 314 313 313 313 312 312 311 311 311 313 314 314 314 314 314 314 313 311 310 310 311 311 310 309 308 307 306 306 304 303 302 300 298 297 296 295 294 294 293 292 292 291 291 289 287 284
339 337 336 334 332 330 328 327 326 325 324 322 321 320 319 318 318 317 316 316 316 316 315 314 313 312 312 312 311 310 309 309 310 311 312 313 313 313 313 313 311 310 310 310 310 310 310 309 307 306 305 304 302 300 299 297 296 295 294 294 293 293 293 292 292 291 290 289 287
335 334 332 330 329 327 325 324 323 322 321 321 320 319 318 317 317 316 315 315 315 315 315 314 314 313 313 313 312 311 310 309 309 310 311 312 312 312 312 311 311 310 309 309 310 310 310 309 308 306 305 303 302 300 299 297 296 295 294 293 293 294 293 293 292 291 290 289 289
332 330 329 327 326 324 323 322 321 320 320 319 319 318 317 317 316 316 315 315 315 315 315 315 315 315 314 314 314 314 313 312 311 311 311 311 311 311 311 310 310 310 309 309 310 310 310 309 308 307 306 305 303 301 299 297 295 293 293 293 293 293 293 292 291 291 290 289 289